Find BSAT-3B

NORAD ID: 37207 Int'l Des: 2010-056 Owner: BSAT Country: J operational
HEOCIRCULARGSOGEO

Live Position

Loading 3D Globe...

About BSAT-3B

Description loading...

Upcoming Passes

Passes for default location (London). Set your location on the main map for personalized predictions.

Altitude History

Loading altitude history...

Two-Line Element Set

1 37207U 10056B 26106.24628081 -.00000343 00000-0 00000-0 0 9998
2 37207 0.0249 190.2537 0000356 58.9840 153.6573 1.00270112 51472
Epoch: Apr 16, 2026 • Age: 11 hours

Current Status

Altitude 35785.4 km
Velocity 3.07 km/s
Sub-Earth Point 0.01°N, 109.82°E
Launch Date Oct 28, 2010
Age 15.4 years
Type other

Technical Details

Classification Payload
Mass 2060.00 kg
Dry Mass 975.00 kg
Total Mass 2060.00 kg
Length 3.80 m
Diameter 1.90 m
Span 14.70 m
Shape Box + 2 Pan
Manufacturer LMN
Bus Type A2100A
Phase Status In Orbit
Owner/State BSAT/J

Most Searched